Regional Weather Roundup
Issued by NWS

Home | Current Version | Previous Version | Graphics & Text | Print | Product List | Glossary On
Versions: 1 2 3 4 5 6 7 8 9 10 11 12 13 14 15 16 17 18 19 20 21 22 23 24 25 26 27 28 29 30 31 32 33 34 35 36 37 38 39 40 41 42 43 44 45 46 47 48 49 50
000
ASUS43 KLOT 251308
RWRIL

ILLINOIS REGIONAL WEATHER ROUNDUP
NATIONAL WEATHER SERVICE CHICAGO/ROMEOVILLE IL
800 AM CDT TUE JUL 25 2017

NOTE: "FAIR" INDICATES FEW OR NO CLOUDS BELOW 12,000 FEET WITH NO
SIGNIFICANT WEATHER AND/OR OBSTRUCTIONS TO VISIBILITY.

* THESE STATIONS ARE NOT UNDER NWS QUALITY CONTROL. THEY ALSO MAY NOT
  REPORT WEATHER SUCH AS PRECIPITATION OR FOG.

ILZ001-002-007-009-015-016-024-251400-
NORTHWEST ILLINOIS

CITY           SKY/WX    TMP DP  RH WIND       PRES   REMARKS
MOLINE         SUNNY     66  61  84 E5        30.15R
STERLING*      SUNNY     64  62  93 E7        30.17R
SAVANNA*       SUNNY     65  62  90 E3        30.17R
$$

ILZ003-004-008-010-011-017-018-251400-
NORTH CENTRAL ILLINOIS

CITY           SKY/WX    TMP DP  RH WIND       PRES   REMARKS
ROCKFORD       PTSUNNY   66  61  84 SE12      30.19S
FREEPORT*      SUNNY     60  60  99 SE5       30.20R
ROCHELLE*      SUNNY     64  62  93 SE6       30.19R
DE KALB*       SUNNY     66  62  87 SE9       30.21R
PERU*          SUNNY    N/A N/A N/A SE10      30.18S
$$

ILZ005-006-012>014-019>023-251400-
NORTHEAST ILLINOIS

CITY           SKY/WX    TMP DP  RH WIND       PRES   REMARKS
CHICAGO-OHARE  MOSUNNY   70  60  70 SE12      30.19R
CHICAGO-MIDWAY MOSUNNY   70  59  68 SE9       30.19R
AURORA         MOSUNNY   67  63  87 SE7       30.20R
LANSING*       SUNNY     66  59  77 SE5       30.21R
JOLIET*        SUNNY     68  62  79 SE3       30.20R
WAUKEGAN       SUNNY     70  65  84 SE6       30.19R
DUPAGE AIRPORT SUNNY     67  62  84 S7        30.19R
WHEELING       SUNNY     69  65  86 SE7       30.21R
MORRIS*        PTSUNNY   66  62  86 SE6       30.19R
ROMEOVILLE*    SUNNY     67  59  74 S6        30.21R
NORTHERLY ISL    N/A     71  60  68 SE3         N/A
$$

LMZ740>746-251400-
SOUTHERN LAKE MICHIGAN

STATION/POSITION SKY/WX   TEMP    WIND        PRES    VSBY  WAVE
                          AIR SEA DIR/SP/G                  HT/PER
                          (F)     (DEG/KT/KT) (MB)    (MI)  (FT/S)
SOUTHERN BUOY              70 71  140/ 10/ 10 1022.0          1/ 5
WILMETTE HARBOR            71 72  140/ 10/ 12   N/A           2/ 4
HARRISON CRIB              71     160/ 10/ 13   N/A
BURNHAM HARBOR             71                   N/A
CALUMET HARBOR             69     150/  6/  8 1022.3R
BURNS HARBOR               68     120/  5/  7 1023.4R
MICHIGAN CITY              65     130/  6/  8   N/A
MICHIGAN CITY 6N           67 74  150/  8/ 12   N/A           2/ 5
ST. JOSEPH                 66 71  170/ 10/ 12 1023.3          2/ 5
$$

ILZ025>027-034>036-040-047-049-050-058-095>099-251400-
WEST-CENTRAL ILLINOIS

CITY           SKY/WX    TMP DP  RH WIND       PRES   REMARKS
QUINCY         SUNNY     69  64  84 SE9       30.12S
GALESBURG*     SUNNY     66  62  86 E8        30.17R
MACOMB*        SUNNY     64  64 100 E5        30.17R
JACKSONVILLE*  SUNNY     67  63  87 E9        30.13F
PITTSFIELD*    SUNNY     69  65  88 E5        30.14S
$$

ILZ028>032-037-038-041>044-048-051>054-059>061-251400-
CENTRAL ILLINOIS

CITY           SKY/WX    TMP DP  RH WIND       PRES   REMARKS
PONTIAC        SUNNY     65  64  96 SE9       30.20R
BLOOMINGTON    SUNNY     66  60  81 SE12      30.19R
DECATUR        SUNNY     67  62  84 E10       30.16R
PEORIA         SUNNY     68  62  81 E7        30.16R
LACON*         SUNNY     65  62  87 SE7       30.17R
LINCOLN*       SUNNY     69  65  88 E7        30.16S
SPRINGFIELD    SUNNY     69  64  84 E7        30.15R
TAYLORVILLE    PTSUNNY   68  63  85 E8        30.14S
$$

ILZ033-039-045-046-055>057-062-063-251400-
EAST-CENTRAL ILLINOIS

CITY           SKY/WX    TMP DP  RH WIND       PRES   REMARKS
CHAMPAIGN      SUNNY     67  61  81 E9        30.18R
RANTOUL*       SUNNY     69  63  81 E8        30.18S
MATTOON        SUNNY     69  63  81 E8        30.15R
PARIS*         SUNNY     66  63  87 E6        30.19R
$$

ILZ079-100>102-251400-
SOUTHWEST ILLINOIS

CITY           SKY/WX    TMP DP  RH WIND       PRES   REMARKS
ALTON          PTSUNNY   70  66  88 E9        30.11R
BELLEVILLE     SUNNY     74  68  81 E6        30.11R
CAHOKIA*       MOSUNNY   75  66  73 E7        30.10R
SPARTA*        MOSUNNY   74  68  81 E9        30.10R
$$

ILZ064>066-069>071-074>076-080>082-084>086-088>090-092>094-251400-
SOUTH-CENTRAL ILLINOIS

CITY           SKY/WX    TMP DP  RH WIND       PRES   REMARKS
CARBONDALE     PTSUNNY   74  72  93 E8        30.09R
CAIRO*         CLOUDY    78  74  86 E6        30.07S HX  81
EFFINGHAM*     SUNNY     70  66  88 E12       30.16S
MARION         MOSUNNY   75  73  94 E8        30.11R
MT. VERNON     MOSUNNY   73  68  84 NE8       30.12R
CENTRALIA*     PTSUNNY   73  69  86 E7        30.11R
SALEM*         CLOUDY    73  66  81 E6        30.13S
METROPOLIS*    PTSUNNY   77  73  85 NE3       30.09S
$$

ILZ067-068-072-073-078-083-087-091-251400-
SOUTHEAST ILLINOIS

CITY           SKY/WX    TMP DP  RH WIND       PRES   REMARKS
LAWRENCEVILLE  SUNNY     70  64  81 E10       30.15R
FLORA*         PTSUNNY   73  66  79 E8        30.14R
FAIRFIELD*     PTSUNNY   73  68  85 E6        30.12S
HARRISBURG*    PTSUNNY   74  71  89 E6        30.11R
ROBINSON*      SUNNY     68  64  84 E7        30.17R
CARMI*         MOSUNNY   73  69  87 E8        30.11S
$$

ABBREVIATIONS USED IN REMARKS
   TC - TEMPERATURE IN CELSIUS
  WCI - WIND CHILL INDEX
   HX - HEAT INDEX
  VSB - VISIBILITY
$$





USA.gov is the U.S. government's official web portal to all federal, state and local government web resources and services.